Location: Degersen
(52.2871°N, 9.5716°E)
Time: 22:39:33
(UTC+00:00)

Cosmos 1932 - Pass Details

Date: 20 January 2026
Orbit: 920 x 1009 km, 65.0° (Epoch: 7 February)

Event Time Altitude Azimuth Distance (km) Brightness Sun altitude
Exits shadow 03:58:46 83° 174° (S) 1,012 4.4 -30.1°
Maximum altitude 03:58:59 85° 131° (SE) 1,009 4.4 -30.0°
Drops below altitude 10° 04:05:34 10° 43° (NE) 2,792 7.4 -29.0°
Sets 04:08:11 0° 43° (NE) 3,749 8.2 -28.6°
